Location: Peebles
(55.6412°N, 3.1714°W)
Time: 22:20:45
(UTC+00:00)

deb Agena D - Pass Details

Date: 26 September 2023
Orbit: 794 x 979 km, 99.8° (Epoch: 28 November)

Event Time Altitude Azimuth Distance (km) Brightness Sun altitude
Rises 01:05:36 0° 19° (NNE) 3,697 10.4 -35.4°
Reaches altitude 10° 01:08:08 10° 23° (NNE) 2,744 9.5 -35.4°
Enters shadow 01:12:22 43° 46° (NE) 1,350 7.4 -35.4°
